Heute – Wetterdaten der letzten 3 Stunden im 5 Min. Intervall

Wetterdaten der letzten 3 Stunden im 5 Min. Intervall
DatumAussentemperaturLuftdruckLuftfeuchtigkeitWindstärke Regen
13.04.21, 09:40 3.7 °C 1033.2 hPa 85 % 0.0 km/h 0.0 mm
13.04.21, 09:35 3.5 °C 1033.0 hPa 86 % 0.0 km/h 0.0 mm
13.04.21, 09:30 3.3 °C 1033.0 hPa 87 % 0.0 km/h 0.0 mm
13.04.21, 09:25 2.9 °C 1033.0 hPa 88 % 0.0 km/h 0.0 mm
13.04.21, 09:20 2.7 °C 1033.1 hPa 89 % 0.0 km/h 0.0 mm
13.04.21, 09:15 2.4 °C 1033.0 hPa 90 % 0.0 km/h 0.0 mm
13.04.21, 09:10 2.1 °C 1032.9 hPa 90 % 0.0 km/h 0.0 mm
13.04.21, 09:05 1.8 °C 1033.0 hPa 90 % 3.2 km/h 0.0 mm
13.04.21, 08:55 1.4 °C 1033.0 hPa 91 % 0.0 km/h 0.0 mm
13.04.21, 08:50 1.1 °C 1032.9 hPa 92 % 0.0 km/h 0.0 mm
13.04.21, 08:45 0.9 °C 1032.9 hPa 92 % 1.8 km/h 0.0 mm
13.04.21, 08:40 0.6 °C 1032.8 hPa 93 % 0.0 km/h 0.0 mm
13.04.21, 08:35 0.4 °C 1032.8 hPa 93 % 0.0 km/h 0.0 mm
13.04.21, 08:30 0.3 °C 1032.8 hPa 93 % 0.0 km/h 0.0 mm
13.04.21, 08:25 0.2 °C 1032.7 hPa 93 % 0.0 km/h 0.0 mm
13.04.21, 08:20 0.1 °C 1032.6 hPa 93 % 0.0 km/h 0.0 mm
13.04.21, 08:15 0.0 °C 1032.7 hPa 94 % 0.0 km/h 0.0 mm
13.04.21, 08:10 -0.1 °C 1032.6 hPa 94 % 0.0 km/h 0.0 mm
13.04.21, 08:05 -0.2 °C 1032.5 hPa 94 % 0.0 km/h 0.0 mm
13.04.21, 07:55 -0.6 °C 1032.4 hPa 95 % 1.8 km/h 0.0 mm
13.04.21, 07:50 -0.7 °C 1032.3 hPa 95 % 0.0 km/h 0.0 mm
13.04.21, 07:45 -0.8 °C 1032.3 hPa 95 % 1.8 km/h 0.0 mm
13.04.21, 07:40 -0.9 °C 1032.2 hPa 95 % 0.0 km/h 0.0 mm
13.04.21, 07:35 -1.1 °C 1032.1 hPa 95 % 0.0 km/h 0.0 mm
13.04.21, 07:30 -1.2 °C 1032.1 hPa 95 % 0.0 km/h 0.0 mm
13.04.21, 07:25 -1.2 °C 1032.0 hPa 95 % 0.0 km/h 0.0 mm
13.04.21, 07:20 -1.3 °C 1031.9 hPa 95 % 0.0 km/h 0.0 mm
13.04.21, 07:15 -1.4 °C 1032.0 hPa 95 % 0.0 km/h 0.0 mm
13.04.21, 07:10 -1.5 °C 1031.9 hPa 95 % 0.0 km/h 0.0 mm
13.04.21, 07:05 -1.5 °C 1031.8 hPa 95 % 0.0 km/h 0.0 mm
13.04.21, 07:00 -1.6 °C 1031.7 hPa 95 % 0.0 km/h 0.0 mm
13.04.21, 06:55 -1.6 °C 1031.7 hPa 95 % 0.0 km/h 0.0 mm
13.04.21, 06:50 -1.6 °C 1031.6 hPa 95 % 0.0 km/h 0.0 mm
13.04.21, 06:45 -1.6 °C 1031.6 hPa 95 % 0.0 km/h 0.0 mm